Theta_e
317 320 321 319 314 311 310 311 311 312 313 315 317 320 320 320 318 313 310 307 307 310 312 313 313 313 313 314 314 312 310 309 310 310 311 311 311 311 311 310 310 311 310 310 310 310 309 309 308 307 307 307 307 307 306 306 306 306 306 306 306 305 305 305 305 305 304 304 304 304 304 304 304 304 304 304 304 305 304 304 303 303 303 303 303 303
319 321 317 312 310 309 309 310 310 312 314 314 316 320 321 320 318 313 310 308 307 311 314 314 313 313 313 314 314 311 310 311 310 310 311 311 311 312 311 311 311 311 310 310 310 310 309 309 309 308 308 307 307 307 307 307 306 306 306 305 305 305 305 305 305 305 305 304 304 304 304 304 304 304 304 304 304 304 304 304 304 303 303 303 303 303
320 319 313 308 308 309 310 311 311 312 314 317 318 320 321 319 316 313 311 309 308 310 314 313 312 311 312 314 314 311 311 312 311 311 311 312 312 311 312 312 311 311 310 310 310 310 309 309 309 309 309 309 308 308 307 307 307 306 306 305 305 305 305 305 305 305 305 304 304 304 304 304 304 304 304 304 304 304 304 304 304 304 304 304 303 303
324 318 310 307 308 310 312 312 312 313 314 317 319 320 319 315 315 316 314 311 310 310 312 311 311 312 313 314 313 311 311 312 311 312 312 312 312 312 312 311 311 311 310 309 310 310 309 308 308 309 309 309 309 308 308 307 307 307 306 306 306 306 305 305 305 304 304 304 304 304 304 304 304 304 304 304 304 304 304 304 305 305 304 304 304 303
321 312 307 308 309 310 314 313 311 315 318 317 316 316 315 312 311 313 313 311 311 312 311 312 316 319 318 316 314 312 311 311 311 311 311 311 312 311 311 311 311 310 309 309 310 310 309 309 308 308 308 309 309 308 308 308 308 307 307 307 306 306 306 305 305 305 304 304 304 304 304 304 304 304 303 303 303 304 304 304 305 305 304 304 304 304
313 307 306 310 311 311 314 314 311 314 320 319 313 311 310 310 309 310 312 313 317 318 313 314 321 325 322 318 317 313 310 311 311 311 310 310 310 310 310 310 309 309 309 310 310 310 310 309 309 308 308 308 308 308 308 307 307 307 307 307 307 307 306 306 305 305 305 304 304 304 304 304 304 304 304 303 303 303 304 304 304 305 305 304 304 304
311 307 307 311 311 312 315 314 310 311 319 320 312 309 309 308 310 311 313 315 321 322 315 314 319 324 325 321 317 315 313 313 313 312 311 310 310 310 310 310 309 309 309 310 311 310 310 310 309 309 308 308 308 307 307 307 307 307 307 307 307 307 307 306 306 306 305 305 305 304 304 304 304 304 304 304 303 304 304 304 304 304 304 305 304 304
311 310 310 311 311 314 316 315 310 308 317 320 310 307 309 309 311 312 313 316 319 318 317 318 317 320 327 324 317 316 316 315 316 315 313 311 311 311 311 311 310 310 310 310 311 310 310 310 309 309 309 308 308 308 307 307 307 307 307 307 307 307 307 306 306 306 306 306 305 305 305 305 304 304 304 304 303 304 304 304 304 304 304 305 305 304
308 313 312 311 313 315 315 311 308 307 315 316 307 307 309 308 310 311 313 317 317 317 321 320 316 319 327 324 315 315 318 318 318 318 316 313 312 312 311 312 311 310 310 310 310 310 310 310 309 309 309 309 308 308 308 308 307 307 307 307 307 307 307 306 306 306 306 306 306 306 305 305 305 305 304 304 304 304 303 304 304 304 304 304 305 305
308 310 308 310 314 314 311 307 305 307 312 310 306 307 308 308 310 311 313 317 317 320 322 317 314 319 326 323 317 318 320 319 319 319 317 314 313 313 312 312 312 311 311 310 310 310 310 310 310 309 309 309 309 308 308 308 308 308 308 307 308 307 307 307 307 306 306 306 306 306 306 305 305 305 305 305 305 304 304 303 304 304 304 304 304 305
308 307 307 309 310 309 306 305 305 306 308 308 308 310 311 311 312 312 314 315 319 324 320 313 312 316 321 322 321 321 319 318 317 317 317 314 313 314 313 312 312 311 311 311 311 311 310 310 309 309 309 309 309 309 308 308 308 308 308 308 308 308 307 307 307 307 306 306 306 306 306 305 305 305 305 305 305 305 304 304 304 304 304 304 304 304
309 310 310 307 305 305 306 307 306 303 304 307 310 313 316 318 316 316 317 317 322 325 318 313 312 314 319 320 318 317 317 317 316 315 316 315 313 313 313 312 312 311 311 311 311 310 310 310 309 309 309 308 308 308 308 309 308 308 308 308 308 308 307 307 307 307 307 306 306 306 306 306 306 306 306 306 306 306 305 305 305 304 304 304 303 304
315 313 310 306 304 304 308 313 312 308 307 310 314 316 321 324 320 320 322 321 323 323 315 311 311 316 322 320 316 316 316 315 315 315 315 314 312 313 312 312 312 311 311 311 310 310 310 310 309 309 309 308 308 308 308 308 308 308 308 308 308 308 308 308 307 307 307 307 307 306 306 306 306 306 306 306 306 306 306 306 305 305 305 304 304 304
320 314 311 312 310 305 307 315 318 316 314 315 316 317 323 325 321 322 324 322 324 324 315 309 313 321 323 319 316 317 315 313 313 313 313 313 312 312 312 312 312 312 311 311 311 310 310 310 310 310 309 309 309 308 308 308 308 308 308 308 308 309 308 308 308 307 308 307 307 307 307 307 307 307 306 306 307 306 307 306 306 306 306 306 305 305
320 320 316 314 312 307 307 311 312 312 314 315 313 314 320 322 320 322 324 323 325 327 319 312 316 322 320 318 318 315 313 312 312 312 312 313 312 312 313 312 312 312 311 311 311 310 310 310 309 309 309 309 309 309 308 308 308 308 308 309 309 309 308 308 308 308 308 308 308 308 308 307 307 307 307 307 307 307 307 307 307 307 307 307 307 306
320 323 314 308 307 306 308 308 305 309 315 314 311 315 319 318 317 321 322 320 320 324 324 320 322 323 318 319 317 313 313 312 312 312 312 312 313 312 313 312 312 312 311 311 311 310 310 310 309 309 309 309 309 309 309 309 309 309 309 309 309 309 309 309 308 309 309 309 309 309 308 308 308 308 308 307 307 307 307 307 307 307 307 307 307 307
319 322 311 307 307 305 305 306 303 308 315 315 315 318 315 310 314 320 320 316 316 322 326 322 323 324 321 320 317 314 315 314 312 312 312 312 313 312 313 313 312 313 312 311 310 309 309 309 309 310 309 310 310 310 310 309 309 309 309 309 309 309 309 309 309 309 309 309 309 309 309 309 308 308 308 308 308 308 307 307 307 307 307 307 307 306
315 320 313 309 312 306 302 304 304 304 308 315 318 314 311 310 312 317 321 321 321 323 323 320 319 322 322 320 318 316 316 315 314 313 312 313 314 313 313 313 313 313 312 311 310 309 309 309 309 309 309 309 310 310 310 310 310 310 310 309 309 309 309 309 309 309 309 309 309 309 309 309 308 308 308 308 308 308 308 308 307 307 307 307 306 306
312 320 316 309 312 309 302 305 311 308 305 310 313 309 311 318 318 319 320 322 323 322 324 324 320 321 324 322 318 318 318 318 316 315 314 314 314 314 313 313 313 312 310 310 310 309 309 308 309 309 309 309 310 310 309 310 310 310 310 309 309 309 309 309 309 309 309 309 309 309 308 308 308 308 308 308 308 308 308 308 308 307 307 307 306 306
311 318 319 310 308 309 307 310 317 317 308 307 309 308 310 315 317 318 318 319 322 323 326 327 324 324 326 323 319 319 319 318 317 318 317 314 313 313 313 312 312 311 310 310 310 309 308 309 309 308 309 309 309 309 309 309 310 309 310 309 309 309 309 309 309 309 309 309 309 308 308 308 307 307 307 307 307 307 307 307 307 307 307 307 307 307
311 315 319 313 307 310 314 312 314 318 314 312 314 313 313 312 312 315 316 316 319 322 323 325 327 327 324 320 319 318 319 320 319 319 318 313 313 313 312 312 311 310 310 310 309 309 308 308 308 308 308 308 308 308 308 309 309 309 309 309 309 309 309 309 309 309 309 309 308 308 307 307 307 307 307 307 306 306 306 306 306 306 306 306 306 306
313 314 316 316 314 317 317 307 304 307 309 311 314 314 314 314 314 319 319 315 315 318 320 321 325 328 321 317 318 316 317 317 316 315 315 313 312 312 311 311 311 310 310 309 309 309 308 308 308 308 308 308 308 308 308 308 308 308 308 308 308 308 308 308 309 309 309 309 308 308 307 307 307 307 306 306 306 306 306 306 306 305 305 305 305 305
308 311 315 318 317 315 309 301 300 301 301 306 309 310 311 312 315 321 323 319 316 315 316 316 320 326 321 315 314 313 312 312 312 312 313 312 312 312 312 311 311 310 310 310 309 308 308 308 308 308 307 307 307 307 307 307 307 307 307 307 307 307 307 307 307 308 308 308 308 308 307 307 307 307 306 307 307 306 306 306 306 306 305 305 305 305
306 312 316 318 316 309 304 301 300 299 301 307 310 308 309 312 314 316 317 317 317 317 318 318 320 327 323 313 310 311 310 310 311 311 312 312 312 312 312 311 311 310 310 309 309 308 308 308 308 307 307 307 307 307 307 307 307 307 307 307 307 307 306 307 307 307 307 307 307 307 307 307 307 307 307 307 306 306 306 306 306 306 306 305 305 305
311 315 315 318 320 315 312 311 308 306 306 311 313 309 309 312 312 313 313 313 317 321 322 322 327 332 325 316 313 311 310 310 311 312 312 312 313 312 312 311 310 310 310 309 309 308 308 308 307 307 307 307 307 306 306 306 306 307 307 306 306 306 306 306 306 306 306 306 306 306 306 306 306 306 306 306 306 306 306 306 306 306 306 305 305 305
312 314 314 318 320 319 319 319 318 316 312 312 312 310 310 312 313 315 315 315 319 322 320 322 328 326 319 319 319 315 314 314 313 313 313 312 312 312 311 311 310 309 309 309 308 308 308 307 307 307 307 307 306 306 306 306 306 306 306 306 306 306 306 306 306 306 306 306 306 306 306 305 305 305 305 305 305 306 305 306 306 305 305 305 305 305
309 311 313 316 319 320 321 319 317 315 313 313 315 314 312 311 312 314 315 317 321 319 318 321 321 318 315 316 316 315 316 317 315 313 313 312 311 311 310 310 309 309 309 308 308 307 307 307 307 306 306 306 306 306 305 306 306 306 306 306 306 306 306 306 306 306 306 306 306 305 305 305 305 305 305 305 304 304 305 305 305 305 305 304 304 304
309 313 313 314 317 317 316 315 315 313 312 313 315 317 315 312 311 313 314 317 320 317 316 319 318 317 316 314 314 315 315 315 313 312 312 312 311 310 310 310 309 309 308 308 307 307 307 307 306 306 306 306 306 306 305 305 305 305 306 306 306 306 305 305 306 306 306 306 306 305 305 304 304 304 304 304 304 304 304 304 304 304 304 304 304 304
309 314 313 311 313 314 312 312 313 312 312 312 313 315 316 314 312 313 312 314 317 317 315 317 318 316 314 313 313 313 312 312 312 311 311 311 311 310 310 310 310 309 308 307 307 307 307 306 306 306 306 306 305 305 305 305 305 305 305 305 305 305 305 304 304 305 305 305 305 304 304 304 304 304 304 304 304 304 304 304 304 304 304 304 304 304
307 314 312 308 310 313 313 312 312 310 311 312 311 313 315 314 313 312 312 311 313 315 314 314 314 313 312 311 311 310 311 311 311 311 311 311 311 311 311 310 310 309 307 307 307 306 306 306 306 306 306 305 305 304 304 304 305 305 305 305 305 304 304 304 304 304 304 304 304 304 303 303 303 304 304 304 304 304 304 304 304 304 304 304 304 305
304 313 311 307 310 313 312 311 310 309 310 310 311 311 311 312 312 310 310 310 310 312 312 311 312 311 309 309 309 310 311 311 310 311 311 311 312 312 311 310 309 308 307 307 306 307 307 306 306 306 305 304 304 304 304 304 304 305 305 305 305 304 303 303 303 303 303 303 303 303 303 303 303 304 304 304 304 304 305 305 305 304 304 304 304 304
303 309 309 307 312 315 310 309 310 310 310 310 311 311 309 309 311 311 311 310 311 311 310 310 311 311 309 309 310 311 311 310 311 311 311 312 312 311 310 309 308 307 307 307 307 307 307 306 306 305 304 304 303 303 303 304 304 304 304 304 303 303 303 303 303 303 303 303 303 303 303 303 303 304 304 304 304 304 305 305 305 305 305 304 305 305
304 308 310 310 314 315 309 307 310 310 311 315 317 317 314 310 309 309 310 311 310 310 310 311 312 311 310 310 312 313 311 310 311 311 311 311 310 309 310 308 307 307 307 307 307 306 306 305 304 304 304 303 303 303 303 303 303 304 303 303 302 302 302 303 303 303 303 303 303 303 303 303 303 303 304 304 304 304 304 305 305 305 304 304 304 304
304 307 311 311 313 314 311 309 310 310 313 318 320 321 320 317 313 311 311 311 310 309 310 310 310 310 310 311 312 312 311 309 310 310 310 310 309 309 309 307 307 307 307 306 306 305 305 304 304 304 303 303 302 302 303 303 303 303 302 302 302 302 302 302 302 302 302 303 303 303 303 303 303 303 303 303 304 304 304 304 304 304 304 304 304 304
306 306 309 311 311 313 313 311 312 314 316 316 317 315 314 315 316 313 312 312 310 309 310 309 309 309 309 308 309 309 309 309 309 310 309 309 309 308 308 308 308 307 306 305 305 305 304 304 304 303 303 302 302 302 302 303 302 302 302 301 301 301 301 301 301 301 301 302 302 302 302 302 302 303 303 303 303 303 303 303 303 303 303 303 303 303
306 307 308 310 311 312 312 312 313 315 314 313 314 310 307 309 311 309 312 317 314 310 310 310 308 308 307 307 308 308 309 309 309 309 309 309 309 308 308 308 307 306 305 304 304 304 303 303 303 302 302 302 302 301 301 301 301 301 301 301 301 301 301 301 300 300 300 301 301 301 301 301 301 301 301 302 302 302 302 302 303 303 302 302 302 303
302 308 309 310 312 312 312 314 315 313 313 315 315 311 307 309 312 310 313 320 317 311 309 310 310 308 307 308 309 308 308 309 309 310 309 309 309 307 306 306 305 305 305 304 303 303 302 302 302 301 301 301 301 301 301 301 301 301 301 301 301 300 300 300 300 300 300 300 300 299 299 299 299 300 300 300 300 300 301 301 301 301 301 301 301 302
298 305 307 309 313 311 309 313 314 312 315 320 317 311 307 307 308 308 310 314 314 310 309 311 312 309 306 308 309 309 309 309 310 311 309 309 308 306 305 305 304 304 304 303 302 301 301 301 301 300 300 300 300 300 300 300 301 300 300 300 299 299 299 299 298 298 298 298 298 298 298 298 298 298 298 298 298 298 298 299 299 299 299 299 299 299
298 301 304 307 311 311 309 312 313 312 315 318 316 311 306 304 305 306 310 316 315 311 310 311 311 309 308 309 310 309 309 310 310 309 308 307 306 305 305 304 303 303 302 301 301 301 300 300 300 300 300 300 300 300 300 300 300 300 299 299 298 298 297 296 295 295 295 295 295 296 296 296 295 295 295 295 295 295 295 295 295 296 296 296 296 296
300 302 304 305 308 309 309 311 311 310 312 316 315 310 305 304 305 306 313 320 316 310 310 311 310 310 310 311 310 310 310 310 310 308 308 307 305 304 303 303 302 302 301 300 300 300 299 299 299 300 300 300 299 299 299 299 299 299 299 298 297 296 294 293 292 292 292 292 291 291 291 291 292 292 292 291 291 291 291 291 291 291 292 292 292 292
301 303 304 304 306 307 308 310 310 309 312 316 314 308 304 304 307 308 313 317 313 309 310 310 308 309 310 310 310 310 310 309 308 308 307 305 304 303 303 302 301 300 300 299 299 299 299 299 299 300 300 299 298 298 298 298 297 297 297 296 295 293 292 291 291 290 289 288 288 288 288 288 288 288 288 287 287 287 288 288 288 287 288 288 288 288
304 305 305 304 305 306 307 308 309 309 311 311 309 305 303 306 312 314 313 312 310 309 309 308 308 309 308 309 309 309 308 307 306 306 305 304 303 303 302 301 300 299 299 299 298 298 299 299 299 299 298 297 297 297 296 296 295 294 294 293 292 291 290 289 288 287 286 285 286 286 286 285 285 285 285 285 285 286 286 286 285 285 286 286 286 286
308 308 308 304 304 307 307 306 308 313 313 308 306 305 305 309 314 314 310 309 310 309 308 307 308 307 307 308 307 306 306 305 304 303 303 303 302 301 300 300 299 298 298 298 298 298 298 298 298 297 296 295 295 294 294 293 292 292 292 291 291 290 288 287 285 284 284 284 284 284 284 284 284 284 284 284 284 285 285 284 284 284 284 284 284 284
308 309 313 309 307 310 311 308 308 312 311 307 307 308 308 309 310 309 307 308 308 307 307 307 306 306 306 306 305 304 303 302 302 302 302 301 300 299 299 298 297 297 297 297 296 296 296 295 295 294 293 293 293 292 291 291 290 291 291 290 289 287 285 284 283 283 283 283 283 283 283 283 283 283 283 283 283 283 284 283 283 283 283 283 283 282
308 309 312 312 310 310 312 311 308 308 307 307 307 309 308 307 308 308 307 307 307 307 306 306 305 305 304 304 303 302 301 301 300 300 299 299 298 298 297 297 296 295 294 294 292 291 291 291 291 291 291 291 290 290 290 290 290 290 289 287 285 284 283 282 283 283 283 283 282 282 282 282 282 282 282 282 281 282 282 282 282 282 282 281 281 281
306 304 305 309 311 309 308 309 307 306 307 307 307 307 307 307 307 307 306 306 306 305 304 304 303 303 302 302 301 300 300 299 299 298 298 297 297 296 295 294 293 292 290 289 287 286 286 287 287 288 288 289 289 289 288 287 287 286 284 283 282 282 282 282 282 282 282 282 282 281 281 281 281 281 281 281 280 280 280 280 281 281 281 280 280 280
305 303 304 309 311 308 307 309 308 306 307 307 306 306 306 306 306 305 305 305 304 303 303 302 301 301 300 300 300 299 298 298 297 297 296 295 295 293 292 291 290 288 286 284 283 283 284 284 284 284 285 286 287 286 284 283 282 282 281 281 282 282 282 282 282 281 281 281 281 281 280 280 280 280 280 280 279 279 279 280 280 280 280 280 279 279
306 304 306 308 307 306 307 308 306 305 306 306 305 305 304 304 304 304 303 303 302 302 301 300 299 299 299 298 298 297 296 296 295 295 294 292 291 290 289 288 287 285 283 282 282 282 282 282 282 282 282 282 282 282 281 281 281 280 280 281 281 281 281 281 281 280 280 280 280 280 279 279 279 279 278 278 278 278 278 279 279 279 279 279 279 278
306 305 306 308 306 305 306 305 304 305 306 304 304 303 301 301 302 302 301 301 300 300 299 298 298 297 297 296 296 295 294 293 292 292 290 288 287 287 286 285 284 283 282 282 282 282 281 281 281 281 281 281 281 281 281 281 280 280 280 280 280 280 280 280 280 279 279 279 279 278 278 278 278 278 277 277 277 277 277 277 277 278 278 278 277 277
304 305 306 306 305 305 305 304 305 307 306 303 301 300 300 299 299 300 300 299 298 298 297 297 296 295 294 294 293 293 292 291 290 289 287 286 284 283 283 283 282 282 282 282 282 282 281 281 280 280 280 280 280 280 280 280 280 279 279 279 279 280 280 279 279 279 278 277 277 277 277 277 277 277 276 276 276 276 276 276 276 276 276 276 276 276
303 305 305 305 305 305 303 303 304 305 303 299 297 298 299 298 298 298 297 296 296 295 294 294 293 292 291 291 290 291 290 289 288 287 286 285 284 283 282 282 282 282 282 281 281 281 281 281 280 280 280 280 280 280 280 280 279 279 279 279 279 279 279 279 279 278 277 275 275 275 275 275 275 275 274 274 274 274 274 274 275 275 275 274 275 275
Wind_Speed
5 5 4 4 3 4 4 4 4 4 5 4 4 4 4 2 1 2 2 1 4 3 5 6 6 9 8 8 11 11 17 15 13 12 12 13 12 11 11 10 10 10 10 11 12 12 12 12 13 13 13 13 13 14 15 15 14 14 15 15 15 15 16 16 15 15 15 15 14 14 13 14 14 15 16 16 16 16 15 15 15 15 15 14 14 14
5 5 4 3 2 3 3 3 4 4 5 4 3 5 3 1 1 2 3 1 2 2 4 4 6 10 8 8 8 9 13 11 12 12 12 13 12 11 10 10 10 9 9 10 12 11 11 11 10 10 10 11 12 13 14 15 15 15 16 16 17 16 16 16 16 14 14 14 14 14 13 14 14 15 15 15 16 15 14 13 13 14 15 14 13 13
5 4 2 3 2 3 3 3 4 3 4 4 4 4 3 3 3 2 2 2 0 0 4 7 8 11 10 8 5 11 9 7 10 11 10 11 11 10 9 9 9 9 9 9 10 9 11 12 11 11 11 12 12 13 14 15 16 16 17 17 18 18 17 17 17 16 15 14 14 15 14 15 15 15 15 15 15 15 14 14 12 12 13 13 13 13
3 2 1 3 3 4 2 1 4 3 1 3 3 2 2 4 3 1 0 4 5 2 4 6 7 9 7 3 2 6 6 5 8 9 9 9 9 9 8 9 10 9 9 10 9 8 9 11 11 12 13 14 14 14 15 16 17 18 18 18 18 19 19 19 18 18 17 16 15 15 15 15 15 15 16 16 17 17 18 18 14 11 11 11 12 12
3 1 1 3 3 3 2 2 5 3 1 3 4 3 1 2 2 3 4 8 7 2 3 6 5 5 2 2 1 2 2 3 7 8 9 11 11 10 10 11 12 11 11 10 10 9 9 10 11 12 13 14 15 15 15 16 17 18 19 19 19 19 19 19 19 18 18 18 17 16 16 16 16 17 17 17 18 20 21 21 19 16 13 12 11 11
3 1 1 3 3 2 2 2 3 2 2 1 2 2 1 2 3 5 7 7 4 2 2 3 3 4 3 2 3 3 2 4 6 8 9 12 12 12 13 14 14 13 12 10 8 8 10 10 10 11 12 13 15 15 16 16 17 17 18 19 19 20 20 19 19 19 19 18 18 17 17 17 16 16 16 16 17 19 19 20 21 20 18 14 11 10
2 1 1 2 2 3 1 1 1 1 2 1 2 2 1 2 3 4 6 4 2 2 3 3 3 3 6 2 2 3 2 4 5 7 9 10 11 12 13 13 13 12 11 9 8 8 8 9 10 11 12 13 14 15 16 16 16 16 17 17 17 18 19 19 19 19 19 19 18 18 18 17 16 16 14 14 15 16 17 17 18 19 19 17 13 11
1 3 3 1 1 2 1 1 1 2 2 1 3 2 2 2 3 3 4 2 1 2 3 5 3 1 5 4 1 3 1 3 5 7 9 12 13 12 12 11 11 10 10 10 9 8 8 9 10 11 12 13 13 14 15 16 16 16 17 17 17 17 17 18 19 19 20 20 19 19 19 18 17 17 16 15 15 15 16 16 15 17 18 18 16 14
1 1 1 1 1 1 0 1 2 2 1 0 1 1 2 2 3 3 2 4 3 2 3 5 3 1 4 4 1 2 1 3 5 5 5 8 11 12 12 11 10 10 10 11 11 10 10 10 10 11 12 12 13 14 15 16 17 17 17 17 17 17 16 16 17 18 19 19 19 19 19 19 19 18 18 18 17 16 16 16 15 15 16 17 18 16
0 1 1 2 1 0 0 1 2 1 1 0 1 1 1 1 2 2 2 4 2 3 1 5 3 1 4 5 2 1 2 2 1 3 4 3 2 6 8 9 9 10 11 12 12 12 12 12 13 13 13 13 13 14 15 15 16 17 17 18 18 17 17 16 16 16 17 18 19 19 19 19 19 19 19 20 19 18 18 18 17 16 16 16 17 17
2 2 1 1 1 1 1 1 0 1 2 3 2 1 1 2 2 2 3 2 2 2 3 4 3 2 2 4 1 1 1 1 3 4 4 4 3 0 3 6 8 9 10 11 13 14 14 15 16 17 17 16 16 16 16 16 16 17 17 18 18 18 17 17 16 16 16 17 18 18 19 19 20 19 19 20 20 19 19 19 19 18 18 17 18 19
3 1 1 2 1 1 1 1 2 2 3 2 2 1 1 1 1 0 2 1 3 1 3 3 3 2 1 3 1 3 3 3 4 4 5 5 4 2 2 4 5 7 9 10 13 15 17 18 19 19 20 20 19 19 19 19 19 19 19 19 19 18 18 18 18 17 16 16 17 18 19 19 20 20 21 21 20 19 19 20 20 19 18 18 18 19
2 1 1 2 1 0 0 1 1 1 2 2 2 2 2 2 2 2 2 1 1 2 3 1 2 1 4 5 2 4 4 4 4 4 4 3 1 2 2 4 5 7 9 11 14 16 17 18 19 19 19 19 19 20 20 21 21 22 22 21 20 19 18 18 18 19 18 17 17 18 19 19 20 20 21 22 22 21 20 20 20 20 19 19 18 18
2 1 1 1 1 1 1 2 1 2 3 2 1 2 2 2 2 2 3 2 1 3 2 0 2 2 3 4 3 5 5 5 4 3 2 1 1 2 4 6 8 9 11 13 14 15 16 17 18 18 18 18 18 18 20 21 23 24 23 23 22 20 18 18 18 18 19 19 18 19 19 20 20 21 21 22 22 22 22 21 21 21 21 21 20 19
0 1 1 1 1 2 1 2 1 2 3 2 1 2 2 3 2 0 1 1 2 4 3 2 1 2 2 2 3 6 6 5 3 2 2 2 3 4 4 5 7 9 11 12 13 15 16 17 19 19 19 20 19 19 19 20 22 24 24 24 23 21 18 17 17 18 19 19 19 19 20 20 20 21 21 22 22 22 22 22 22 22 22 22 22 21
2 1 1 1 2 2 1 1 1 1 2 2 1 2 1 1 1 1 1 2 1 2 2 2 2 4 3 1 3 5 4 3 3 2 2 3 4 4 5 5 7 8 9 11 14 16 17 17 18 19 21 21 22 22 22 22 23 24 24 24 23 20 18 17 17 17 18 19 19 19 20 20 20 21 21 22 22 22 23 23 23 23 22 22 22 22
1 1 1 1 1 2 2 1 1 1 1 1 2 1 2 0 2 2 1 1 2 1 3 2 2 4 2 2 1 3 2 2 4 4 4 4 3 5 6 7 7 7 9 12 14 15 15 15 16 17 18 20 21 22 22 22 23 23 23 22 20 18 17 16 16 17 17 18 18 19 19 20 20 21 21 21 21 21 22 23 23 23 22 22 21 21
1 2 2 1 1 0 0 2 1 1 1 1 1 2 2 1 2 2 0 2 1 1 3 1 2 5 3 3 3 1 3 3 5 5 5 3 2 3 6 6 5 7 10 12 13 13 13 14 15 16 17 18 18 18 19 19 19 19 19 19 18 17 17 17 17 17 17 18 19 19 20 20 21 21 21 21 20 20 21 22 22 22 22 22 21 21
0 1 2 2 1 1 0 2 2 2 2 1 1 2 0 2 0 0 1 1 1 2 4 3 2 3 3 4 3 4 5 6 6 5 3 3 4 5 6 7 7 9 10 11 11 11 12 13 15 16 18 18 18 18 17 17 17 17 18 18 17 17 17 17 17 17 17 18 19 20 20 21 21 21 21 21 21 21 21 21 21 22 22 21 21 22
1 1 2 3 1 1 1 1 0 1 1 2 2 2 1 2 1 1 1 1 1 1 4 4 4 3 4 4 3 7 8 7 7 6 4 6 7 7 8 8 10 10 10 11 11 10 11 13 14 16 18 18 19 19 19 18 17 17 17 18 17 17 18 18 18 18 18 18 18 19 20 20 20 21 21 22 22 22 22 21 21 21 21 21 22 22
1 2 1 3 2 1 1 1 1 1 1 0 1 1 0 0 1 1 0 1 2 1 2 3 4 5 5 1 2 3 5 7 8 7 7 6 7 8 9 9 9 9 10 11 10 9 11 13 14 16 17 18 19 19 19 19 19 18 18 18 18 18 19 19 19 20 19 19 19 19 19 19 19 19 20 21 22 22 22 21 21 21 21 22 22 22
1 1 1 2 1 1 1 1 1 1 0 1 2 2 1 1 1 1 1 1 1 1 2 1 3 7 5 2 4 3 3 5 6 8 8 3 6 8 9 10 9 9 10 9 8 9 11 12 14 15 16 18 19 19 19 19 19 19 19 19 19 20 20 20 20 20 20 20 20 20 21 21 21 21 21 21 21 21 21 21 21 22 22 23 23 23
1 1 0 2 2 1 1 0 0 2 1 1 1 1 1 1 2 3 1 2 0 1 1 2 2 7 6 1 3 3 3 3 3 5 5 1 6 8 9 10 10 10 9 7 6 8 10 12 14 15 17 17 19 19 20 20 20 21 21 21 21 21 21 21 22 22 22 22 22 23 23 23 24 23 23 23 23 23 22 22 22 23 24 25 25 25
1 1 1 2 1 1 0 1 2 3 1 0 2 1 0 0 2 3 3 2 1 2 3 2 2 7 6 1 0 0 2 1 3 5 4 5 7 8 9 10 11 11 9 6 5 7 9 12 14 16 17 18 19 20 20 21 21 22 23 23 24 24 24 24 24 24 24 25 25 25 25 26 26 26 26 26 26 26 25 25 26 26 27 27 27 28
0 0 1 1 3 3 3 1 1 2 1 2 2 2 2 3 4 2 1 2 1 5 7 4 4 7 4 1 2 3 2 3 6 7 6 6 6 8 10 11 11 11 9 6 5 7 10 12 14 16 18 19 20 21 20 21 21 22 23 25 26 26 27 27 27 28 28 28 28 28 28 29 29 29 29 29 29 29 28 29 29 30 31 31 31 32
0 0 2 2 0 1 2 1 1 0 1 2 1 2 3 4 5 2 1 2 2 4 6 5 5 6 4 3 4 4 2 3 5 6 4 4 6 11 12 12 11 10 10 9 8 10 13 15 16 17 18 20 21 22 22 22 23 24 24 26 27 28 29 30 31 31 31 32 32 32 31 31 31 31 30 30 30 31 31 31 32 32 33 34 34 35
1 1 2 5 5 5 4 3 2 1 1 2 2 3 4 4 5 3 2 3 4 3 4 7 8 9 12 11 9 6 6 6 8 10 11 10 12 14 12 10 9 11 11 10 11 13 14 15 17 18 18 19 20 20 21 22 23 24 26 27 28 29 31 32 33 34 34 35 35 35 34 32 32 32 31 31 31 31 32 32 32 33 34 34 35 36
1 2 3 5 7 6 2 2 3 3 3 5 5 6 7 6 6 6 6 6 4 1 6 7 6 8 13 14 11 8 6 5 8 14 17 17 16 14 10 9 10 11 11 10 11 12 13 15 17 17 17 17 18 19 21 22 23 24 26 28 29 30 31 32 33 34 35 36 37 37 35 34 33 33 32 33 32 32 32 32 33 33 34 34 35 36
2 3 2 1 5 7 5 5 5 5 5 6 6 7 8 8 9 11 12 10 5 4 9 7 4 8 14 15 12 10 8 8 12 18 20 18 14 10 9 9 11 11 11 10 11 11 13 16 16 16 16 18 20 22 24 25 26 27 29 30 31 31 31 32 33 34 34 35 36 36 35 34 34 33 33 33 32 33 33 33 33 34 34 34 35 35
1 2 1 1 4 8 7 7 5 5 4 5 7 9 8 10 13 13 13 11 8 10 14 13 12 14 18 18 14 15 18 17 17 19 18 15 9 7 7 8 9 10 9 10 11 12 14 16 14 14 16 19 21 23 25 27 28 29 30 31 32 32 32 32 33 33 33 33 33 34 34 34 33 33 33 32 32 32 32 32 33 33 33 33 33 34
1 2 1 3 3 6 4 2 0 3 4 5 9 10 9 11 11 10 11 9 7 11 15 14 12 14 20 20 15 17 19 15 13 14 14 11 7 6 8 9 9 9 8 10 12 13 13 13 13 15 18 20 22 23 25 26 27 28 30 30 31 31 31 32 32 31 31 31 31 31 32 32 32 32 32 32 31 31 31 32 31 32 32 32 32 32
2 1 1 3 1 5 3 3 1 3 4 7 12 13 13 11 8 8 9 7 9 11 10 7 7 10 15 14 10 10 10 7 9 11 11 12 12 13 13 11 10 9 9 11 12 11 11 13 15 19 21 22 22 23 25 27 28 29 29 29 29 29 29 29 29 29 29 28 29 29 29 30 30 31 31 31 31 32 32 33 33 33 34 34 34 34
3 2 0 2 1 4 3 3 3 3 4 6 9 10 11 10 8 8 7 8 11 10 5 5 9 10 7 6 6 6 5 6 9 11 13 16 18 18 16 13 9 8 7 9 10 11 14 16 19 21 21 21 22 24 26 27 28 29 28 27 27 27 27 27 27 27 27 26 27 27 28 28 29 30 31 31 31 32 32 33 33 34 35 35 35 36
4 3 1 1 1 3 5 4 3 3 5 6 5 6 7 9 12 11 8 11 12 9 7 9 9 8 8 7 7 7 9 12 14 16 18 18 19 19 17 11 7 5 6 10 14 16 17 18 19 20 20 20 22 23 25 26 27 27 26 25 26 26 27 27 27 26 26 26 26 27 27 29 29 30 31 31 31 32 32 32 33 33 33 34 34 35
5 4 1 1 1 2 2 4 4 4 6 5 4 4 3 5 9 10 9 11 12 12 14 14 12 12 14 16 16 16 18 20 20 21 20 19 20 20 13 5 2 4 10 16 19 19 18 19 20 20 19 20 21 23 24 24 25 25 25 25 26 26 26 26 25 25 26 26 27 28 28 29 30 30 31 31 31 32 32 32 32 33 33 33 33 33
5 5 2 1 2 1 2 1 3 6 7 7 5 3 0 3 4 3 7 11 11 12 14 14 15 16 19 23 25 22 20 17 17 20 20 18 17 10 2 1 3 10 16 18 17 16 16 17 18 17 18 19 20 21 22 23 24 24 25 26 26 25 24 24 24 25 26 28 29 29 30 30 31 31 31 31 31 31 31 31 32 32 33 34 34 33
2 3 1 1 2 2 1 3 4 5 9 8 5 1 2 2 4 5 2 7 10 11 11 11 11 14 18 23 23 18 13 9 9 13 12 7 3 2 3 5 11 16 18 17 14 13 13 15 15 16 17 18 18 19 21 22 23 24 25 26 25 24 23 23 24 25 27 29 29 30 30 30 31 31 30 30 30 30 31 31 31 31 32 33 34 34
2 2 3 2 2 2 1 4 4 3 5 6 5 4 3 3 4 5 1 5 9 12 10 11 10 12 14 15 13 8 3 3 5 6 1 4 2 4 10 14 16 17 17 14 12 12 13 14 15 15 16 17 18 19 21 22 23 24 24 24 23 22 23 24 25 27 29 30 30 30 30 30 30 30 30 30 30 31 31 31 31 32 32 33 34 34
2 1 2 2 2 1 3 3 3 4 6 6 5 4 2 3 4 3 4 5 6 5 5 9 8 9 10 8 6 5 2 4 6 4 4 1 7 13 15 16 15 14 12 10 10 12 13 14 14 15 17 18 19 21 21 22 23 23 22 22 21 22 24 26 29 31 31 31 31 31 31 31 31 31 32 32 32 32 33 33 33 33 33 33 35 35
3 1 1 1 3 3 3 4 4 4 5 6 6 5 4 4 3 4 4 7 5 2 2 4 1 5 6 5 5 6 2 5 6 3 1 6 14 16 14 14 12 9 8 8 10 11 12 13 14 15 17 19 19 20 21 22 22 21 20 20 21 23 26 28 30 31 32 32 32 31 32 32 33 33 34 34 35 35 35 35 35 36 37 37 38 38
1 2 3 3 4 4 4 5 5 3 4 6 7 10 9 4 2 1 4 6 1 4 4 4 8 9 8 7 5 4 6 9 10 11 12 16 19 16 12 10 7 5 7 8 9 10 12 13 14 15 17 18 18 19 20 21 21 19 19 19 21 24 27 28 29 30 31 32 32 33 33 33 34 34 35 36 36 36 36 36 38 39 40 40 40 41
3 2 3 3 3 4 5 5 4 5 9 10 11 13 10 4 1 6 6 2 5 7 8 10 13 12 11 12 11 10 11 13 15 17 17 18 15 10 7 6 5 6 7 8 9 12 13 14 15 15 16 16 16 17 19 19 19 19 19 20 22 25 27 28 30 31 31 32 32 33 33 34 34 35 35 36 37 37 37 38 39 40 41 41 42 43
6 4 3 4 4 4 3 3 2 5 7 13 15 9 5 6 5 6 6 9 10 12 15 19 20 16 12 12 12 12 14 16 16 14 10 7 5 3 3 5 6 7 9 10 11 13 14 15 16 16 15 14 15 17 18 19 20 20 20 22 24 26 28 29 31 31 32 33 33 33 34 35 35 35 36 37 38 37 38 40 41 42 42 43 44 45
5 6 4 4 4 4 3 5 6 6 7 20 19 7 9 14 15 13 11 13 17 20 22 23 21 16 13 13 14 14 15 13 9 6 3 2 3 3 4 6 7 8 10 12 13 14 14 14 14 14 13 13 16 18 19 20 21 20 21 24 27 28 29 30 32 33 33 34 35 35 36 37 37 37 38 39 39 39 41 43 44 44 44 44 45 46
7 7 3 2 5 6 5 7 7 5 8 21 23 17 14 15 17 16 16 20 23 23 21 19 17 16 15 15 15 12 10 8 6 4 4 4 4 5 6 7 8 9 11 13 13 13 13 13 12 12 11 14 18 19 18 20 21 21 23 26 28 29 30 32 32 33 34 35 36 38 39 39 40 40 41 41 41 40 42 45 46 45 45 45 46 46
7 5 1 1 3 5 10 14 11 7 10 18 23 24 23 21 19 20 24 26 23 19 17 14 13 14 13 13 11 8 7 6 6 5 5 5 6 7 8 8 9 11 12 13 14 14 14 13 13 12 12 15 18 18 18 20 22 23 26 28 29 30 32 33 34 35 36 37 38 39 40 42 43 43 44 44 43 42 43 44 45 46 47 47 46 46
7 9 5 2 3 4 7 8 8 10 16 18 16 19 21 21 20 20 21 19 15 14 12 10 10 10 10 10 8 7 7 7 6 6 6 7 9 10 11 11 11 12 13 14 15 16 15 15 16 16 15 16 18 19 19 21 24 26 28 30 32 33 35 36 38 39 40 41 43 43 44 45 46 47 48 47 46 44 43 43 44 46 48 48 47 48
4 8 6 5 6 7 8 7 5 12 22 20 16 15 14 12 11 9 7 6 7 8 8 8 8 8 8 8 7 6 8 8 8 8 9 10 11 11 12 12 11 11 13 14 15 17 18 18 19 19 18 19 20 21 22 24 27 30 32 33 35 37 39 40 41 43 45 47 48 48 48 49 49 49 49 49 47 44 42 42 43 45 47 47 46 48
6 6 5 4 6 8 11 12 11 16 20 15 10 9 7 7 6 4 4 4 5 6 7 9 10 9 8 8 7 6 9 11 11 10 10 10 11 11 10 10 11 13 15 16 17 18 19 21 22 22 22 23 24 25 26 28 31 33 34 35 37 39 40 42 43 45 47 49 51 51 51 50 50 50 50 50 49 47 45 44 43 44 48 50 49 47
7 4 2 2 6 8 7 4 4 8 6 2 3 4 6 6 6 5 5 6 7 7 7 7 8 9 8 8 7 7 10 13 13 12 11 11 12 11 11 12 13 15 16 17 18 18 20 22 24 25 26 28 29 30 32 33 35 36 35 34 35 37 39 42 44 46 49 51 52 52 51 51 51 51 50 49 50 51 52 52 49 48 48 51 53 51
10 10 6 6 10 10 3 4 4 7 1 6 5 4 4 5 7 7 7 8 7 7 6 5 6 8 9 9 8 7 9 12 12 12 13 13 12 11 12 14 15 17 18 19 20 21 22 23 25 27 28 30 32 34 35 37 39 38 35 33 34 35 38 40 43 47 51 52 52 51 51 51 51 51 50 49 49 51 54 57 59 58 54 50 51 52
Wind_Direction
51 63 49 33 20 360 4 6 338 315 299 295 308 288 267 289 8 80 87 19 354 324 260 240 246 271 269 270 277 229 191 195 217 232 244 243 239 242 240 236 246 262 277 290 300 304 303 300 297 300 304 311 319 323 322 322 323 323 322 323 327 330 332 335 336 337 339 341 340 337 334 334 335 333 333 336 340 349 358 360 360 359 1 5 5 6
55 72 56 35 20 337 327 332 321 305 307 314 305 286 281 2 342 62 76 272 6 356 273 312 308 284 272 269 259 181 168 195 218 228 241 237 233 234 230 226 239 257 274 298 313 316 317 319 318 313 314 319 325 329 327 326 328 327 326 328 327 325 326 329 331 333 335 335 335 336 335 332 333 333 332 333 334 337 345 354 357 356 358 1 2 3
55 71 60 30 354 300 270 271 304 309 327 319 283 285 332 5 325 22 87 231 343 296 286 340 327 290 278 268 214 155 169 210 212 220 229 225 222 219 220 224 235 254 274 302 315 310 308 315 320 323 325 327 331 337 335 331 331 329 330 331 329 326 325 326 327 328 331 332 332 335 337 335 334 335 335 335 333 332 337 344 351 353 353 356 360 1
84 85 39 353 324 307 275 300 333 310 299 333 337 352 17 17 353 275 301 319 314 284 285 309 297 288 288 271 144 153 184 204 203 218 219 210 204 201 212 224 234 257 279 302 314 305 297 300 309 318 324 328 333 337 338 339 338 336 336 335 332 330 328 326 325 325 327 329 330 332 335 335 337 340 340 338 334 332 334 335 339 347 348 352 358 358
95 101 339 297 276 297 301 21 19 4 78 27 20 50 67 1 338 257 298 317 310 276 272 300 302 297 278 154 145 166 185 235 226 225 228 223 215 210 221 231 244 265 279 295 313 315 306 301 301 307 312 319 326 330 335 342 343 341 341 340 337 333 330 327 325 323 323 324 326 328 331 335 339 342 340 336 331 329 331 330 331 336 341 345 348 349
75 65 313 284 259 267 300 11 40 34 51 23 343 28 87 306 300 290 305 318 339 345 293 354 16 311 290 182 176 164 185 241 217 213 232 235 233 235 241 247 255 268 278 289 313 323 319 315 309 306 307 312 320 326 332 336 337 338 339 338 338 336 333 331 327 324 322 321 323 324 327 331 334 337 337 333 328 326 327 326 325 327 330 333 335 335
80 168 227 308 295 268 263 64 54 41 31 302 259 300 332 304 296 299 315 344 40 297 290 43 78 283 306 313 120 115 197 213 184 208 234 234 237 243 249 257 260 265 274 286 307 324 328 330 329 324 319 316 319 323 326 329 329 329 330 331 333 334 334 333 330 327 324 322 322 321 321 323 324 327 330 331 327 325 324 323 322 320 321 325 327 326
80 172 209 292 310 280 236 134 359 44 63 235 227 266 306 303 289 303 328 315 240 282 332 21 71 209 291 293 19 57 278 236 215 224 228 223 228 236 244 255 256 256 263 273 292 312 326 335 338 337 333 327 327 327 328 330 331 329 328 326 326 329 331 332 331 329 326 325 324 323 321 320 320 319 321 323 323 324 324 323 322 319 319 321 324 325
288 141 245 279 245 305 225 153 2 28 83 148 174 250 314 327 293 303 309 265 265 42 4 341 26 110 272 281 310 25 359 276 249 228 210 212 220 230 238 249 254 253 256 267 283 298 313 325 331 333 336 336 336 336 335 334 333 332 331 328 325 325 325 326 328 328 327 327 326 327 325 323 321 318 316 316 318 322 324 324 325 324 321 321 323 324
246 62 334 301 301 349 168 115 28 18 181 341 16 258 280 302 278 271 271 274 328 64 250 297 353 51 280 287 287 354 6 314 280 100 95 107 192 232 235 245 253 256 262 274 286 295 303 313 319 322 327 333 336 336 337 337 335 333 331 328 325 324 322 320 321 322 325 325 324 326 326 325 324 322 317 314 316 319 320 322 325 326 325 325 325 326
119 113 82 36 38 21 33 99 133 249 274 316 322 220 196 245 244 217 245 278 24 22 245 268 323 48 294 283 218 149 176 113 78 80 93 86 66 252 247 258 257 260 269 280 292 302 309 313 316 316 318 323 327 330 335 337 336 335 334 330 327 325 323 320 317 317 319 320 320 322 323 322 323 323 321 318 318 318 316 317 321 323 325 326 326 327
153 134 68 86 85 359 343 207 211 238 277 303 276 253 80 295 281 78 312 5 70 306 251 252 331 51 211 262 181 148 153 102 77 73 84 80 63 49 341 294 276 270 272 278 289 302 312 317 319 318 317 317 318 321 326 330 331 332 333 331 328 327 324 321 317 316 317 316 316 318 318 318 320 321 321 321 320 319 316 315 316 317 319 321 322 323
201 182 146 133 97 349 306 303 305 269 252 255 291 337 35 9 353 25 340 7 94 256 236 165 1 7 225 240 174 128 121 94 91 101 101 93 57 19 329 307 298 290 291 294 299 308 316 321 324 324 322 320 316 314 315 318 322 325 326 327 327 327 324 321 319 318 318 318 317 316 315 316 317 317 317 318 320 320 318 315 313 312 312 313 315 315
307 299 166 123 37 309 339 15 12 321 311 313 346 26 58 62 25 341 328 1 2 267 248 33 342 298 262 252 170 132 134 128 123 130 148 243 294 312 311 316 318 317 319 319 319 321 323 324 324 321 322 321 318 314 310 310 313 316 320 323 324 325 323 319 318 319 319 320 319 316 315 316 315 315 315 315 317 319 319 317 314 312 311 311 311 311
52 300 299 60 359 297 341 50 122 292 316 300 177 109 100 110 124 238 316 288 276 284 295 338 318 213 249 263 157 135 142 149 150 172 212 277 293 296 302 320 332 335 337 335 332 329 326 323 320 317 315 314 315 314 309 307 308 310 315 320 321 322 322 320 319 318 318 319 319 318 317 317 315 314 314 314 315 316 316 317 315 314 315 314 314 313
125 257 291 68 322 322 18 23 31 5 319 293 51 76 91 115 136 148 137 186 210 328 308 271 235 212 191 152 115 117 134 168 175 205 245 278 289 291 293 309 331 339 341 338 334 330 328 324 319 315 311 308 308 309 308 308 308 309 314 318 319 319 319 320 319 319 320 321 321 320 320 319 318 317 315 315 315 315 314 314 313 314 316 316 316 315
57 280 248 150 344 26 69 2 40 74 286 317 30 35 248 285 100 114 24 8 100 54 285 252 275 292 344 34 64 117 133 164 161 196 235 253 275 284 296 314 332 340 338 333 334 338 338 335 331 325 320 316 313 311 310 311 310 312 316 318 318 318 319 319 319 320 321 321 321 320 320 320 319 319 318 317 316 314 313 311 312 313 312 313 313 312
114 274 255 214 348 46 132 344 344 231 229 77 68 243 248 31 76 117 17 351 40 299 287 268 287 302 333 330 300 143 148 169 162 185 212 221 265 293 317 341 348 340 336 336 342 349 349 348 347 345 342 338 332 326 322 320 320 321 323 323 321 319 320 320 320 321 322 321 321 320 319 317 318 319 319 319 317 314 311 310 311 310 310 310 310 307
144 296 291 314 3 195 246 7 337 275 240 172 242 275 70 97 51 334 92 3 346 306 294 304 320 295 240 235 234 191 197 187 163 165 156 70 32 5 358 357 341 333 342 351 353 352 355 1 1 0 0 357 353 347 340 334 331 328 328 328 326 323 323 323 322 320 319 319 318 317 317 316 316 317 317 317 317 314 312 312 312 310 310 311 308 306
91 85 288 299 2 57 353 57 173 269 274 281 310 336 29 124 168 222 137 160 189 280 300 315 334 297 241 223 188 195 201 172 150 153 120 69 32 7 355 344 334 338 355 2 360 360 7 13 12 10 8 6 5 2 357 351 344 338 334 331 329 328 326 324 322 319 316 315 314 314 316 316 314 315 315 316 316 315 315 316 315 313 313 312 309 308
64 102 256 308 360 9 291 217 198 171 151 278 32 77 15 62 122 182 117 137 154 165 290 309 305 273 256 335 59 173 181 150 143 147 123 79 20 355 345 337 334 345 2 4 6 15 19 19 17 14 10 8 8 7 4 0 355 351 346 341 338 335 331 327 323 320 317 314 313 314 314 314 313 313 313 312 312 313 315 317 316 316 315 312 311 311
82 123 233 291 302 257 234 257 355 5 61 152 149 151 170 170 118 74 340 312 105 143 190 205 284 273 268 356 38 68 86 94 112 128 129 94 355 347 343 337 336 348 2 6 14 23 21 18 15 10 8 5 4 3 1 358 355 353 350 347 343 340 337 332 328 324 319 314 312 311 311 310 310 310 309 308 308 308 310 312 313 313 311 308 309 310
107 107 249 252 228 181 207 214 13 299 277 131 157 144 73 120 136 128 196 248 305 98 139 122 251 269 275 342 47 65 70 65 102 142 150 288 331 338 340 338 338 348 1 9 25 30 21 15 9 4 1 359 356 355 352 350 348 345 344 342 339 336 333 330 326 322 318 313 309 307 306 304 304 304 303 303 304 303 303 304 304 304 303 302 303 303
59 130 215 263 258 110 185 246 276 291 313 26 265 223 157 187 141 143 172 173 156 188 157 106 254 267 276 290 334 234 139 178 225 211 224 289 321 335 334 332 337 349 3 13 29 31 20 12 7 359 355 352 350 347 344 342 339 336 335 334 332 330 329 326 322 319 315 311 308 305 303 301 300 299 299 299 299 299 299 299 298 298 298 298 299 298
347 160 128 321 333 345 344 347 321 313 281 252 261 183 171 138 108 79 92 94 325 219 182 164 238 257 270 260 236 234 194 217 244 245 255 277 314 333 327 326 337 352 7 20 26 23 17 10 3 356 350 345 342 340 338 335 332 330 328 328 327 326 325 324 321 318 316 313 309 307 306 304 302 301 300 299 298 297 297 296 296 295 296 297 297 297
192 209 138 151 235 264 256 232 212 118 215 234 191 157 189 163 148 149 82 107 242 223 180 180 235 262 288 287 261 262 275 290 290 298 302 306 327 329 321 323 339 2 17 24 26 17 8 360 352 345 340 336 335 335 334 331 328 327 325 325 325 324 322 321 319 318 318 316 314 313 311 310 308 307 305 304 302 300 299 298 297 296 297 297 297 297
31 308 220 204 217 213 195 212 213 131 156 204 188 187 198 201 195 172 104 183 208 213 211 219 239 270 284 280 274 283 301 312 321 329 332 329 325 324 324 329 348 13 22 24 23 12 360 350 341 335 332 330 331 330 327 326 325 323 322 321 321 321 320 319 318 318 317 317 317 317 316 314 312 311 310 308 306 305 303 301 300 299 299 299 298 298
58 288 246 217 236 243 243 250 204 168 213 222 213 210 198 197 194 179 201 217 177 160 252 234 221 257 271 274 277 283 297 317 322 317 314 316 320 324 331 338 351 9 19 21 17 5 351 342 337 335 334 331 329 326 324 327 327 325 324 323 322 321 319 317 317 317 317 317 318 318 318 318 316 315 313 311 310 309 307 306 304 303 302 301 300 300
117 258 262 191 262 276 288 272 220 187 223 228 220 220 200 192 192 194 219 228 192 213 252 258 280 278 274 277 280 288 303 310 303 299 300 305 312 315 319 331 347 2 16 18 8 351 340 340 340 338 333 327 324 326 329 333 333 332 331 330 328 325 322 321 320 320 321 320 319 319 319 320 320 318 317 316 314 313 312 311 309 308 307 306 305 305
138 239 237 108 288 285 278 271 243 210 238 253 244 234 210 208 208 206 227 234 223 245 259 269 285 284 276 275 282 294 300 299 293 293 297 300 301 299 303 321 341 356 10 9 355 342 337 340 342 335 327 323 325 330 334 336 336 336 336 334 331 329 327 326 325 325 325 323 322 321 322 322 322 321 321 321 320 319 318 317 316 315 314 313 312 311
158 228 161 96 321 293 289 339 71 194 219 250 258 246 222 224 224 221 237 237 228 251 259 267 281 278 271 274 284 290 289 289 288 291 300 306 305 303 306 317 334 350 3 355 346 343 340 337 332 325 323 327 331 334 337 338 337 337 336 334 331 329 328 328 328 328 328 326 325 325 324 324 325 325 325 325 325 324 324 323 323 322 321 320 319 318
174 232 45 79 346 288 317 10 281 237 238 252 264 255 231 222 217 215 224 211 201 225 246 268 269 256 264 279 291 281 271 270 282 294 307 309 305 305 308 317 332 348 357 351 347 344 333 322 320 322 325 329 332 335 337 338 338 337 336 334 331 329 328 329 330 330 330 329 327 327 327 328 327 327 328 328 328 327 326 326 325 325 325 324 323 322
176 201 259 109 204 275 293 273 261 321 324 275 256 239 215 208 213 223 236 224 208 202 202 221 234 243 268 296 292 282 280 281 289 300 303 299 299 303 306 314 332 349 356 347 338 326 318 317 321 324 327 329 332 336 337 337 337 337 336 333 330 330 330 331 331 331 330 328 327 327 327 328 327 327 327 327 327 326 325 325 324 325 325 325 324 323
172 179 246 167 164 262 265 267 305 338 300 267 233 197 181 187 201 211 231 233 215 197 207 231 246 267 284 280 269 277 286 289 295 298 294 293 296 300 304 315 338 354 339 326 320 317 317 320 323 323 326 330 333 335 334 334 334 335 335 333 331 331 333 333 333 332 329 328 327 326 326 326 326 326 325 325 325 324 324 323 323 323 324 323 323 323
160 157 252 225 190 259 299 353 339 279 250 260 263 233 197 168 181 197 235 248 228 217 231 247 256 261 265 269 266 267 276 284 290 290 290 295 297 297 303 325 355 324 317 316 314 312 313 317 319 322 325 330 332 332 332 333 335 336 336 334 333 334 336 336 335 333 330 329 328 329 329 329 328 327 327 326 325 324 324 323 323 323 323 323 323 322
159 171 214 205 189 275 15 77 234 258 275 284 276 254 94 74 115 171 263 270 243 222 224 234 248 254 259 265 267 269 274 280 284 288 292 297 297 297 314 76 313 317 319 317 313 309 311 315 318 323 327 331 333 333 333 335 335 336 336 335 336 338 338 336 333 331 331 332 333 334 335 334 333 332 331 331 329 328 328 327 327 327 325 324 324 323
112 175 205 205 194 197 223 228 244 304 310 293 271 218 152 170 154 150 240 272 255 244 228 218 239 252 251 259 269 273 273 279 293 299 300 290 262 119 68 338 328 326 321 316 313 312 315 318 320 326 332 335 335 334 333 334 334 335 336 336 339 340 337 332 330 330 332 335 337 338 338 338 337 336 335 335 334 333 333 332 331 330 329 327 326 325
9 194 159 172 224 170 193 282 297 302 280 260 254 248 208 193 179 151 122 283 264 260 236 201 215 240 244 257 268 259 254 326 321 304 228 134 122 351 340 334 332 326 318 315 316 316 319 322 327 334 336 334 334 334 334 335 335 336 339 341 342 338 334 332 333 334 336 338 339 340 340 340 340 340 339 339 338 337 336 335 333 332 331 329 328 327
13 333 98 100 271 145 151 234 236 228 242 246 250 244 196 189 189 120 24 307 277 274 217 182 201 235 245 254 237 185 115 336 303 269 173 136 340 337 336 335 332 324 321 320 318 318 322 326 332 335 333 332 335 336 335 335 335 338 342 344 340 336 338 340 341 341 342 343 343 342 342 342 341 341 340 339 339 338 337 336 334 332 331 330 328 327
70 5 112 186 236 193 172 233 245 245 248 241 232 216 179 179 159 73 355 279 266 8 101 133 17 304 291 271 208 173 199 291 305 334 339 332 342 344 340 338 337 333 326 316 314 319 324 329 334 334 333 337 340 340 337 336 337 340 343 342 338 341 346 347 345 344 344 344 345 345 345 344 343 342 341 340 340 339 338 337 336 335 333 332 331 330
118 218 192 197 230 215 204 244 264 259 249 241 212 184 167 143 102 117 247 243 205 60 53 30 0 339 318 295 261 255 292 301 315 326 324 325 332 335 333 332 335 332 321 314 317 322 324 329 334 334 336 340 340 338 338 337 339 345 346 343 344 349 350 346 343 343 344 345 346 346 346 346 345 344 343 342 340 339 338 338 338 337 336 334 333 332
172 195 179 175 214 211 210 244 285 286 255 223 177 160 158 144 181 218 235 299 25 27 8 347 337 329 316 304 300 304 312 313 313 314 317 318 318 320 321 315 310 310 306 305 315 323 328 334 337 338 343 346 341 339 339 340 344 350 349 348 352 353 348 343 342 344 345 346 345 345 346 346 345 344 343 341 340 338 337 337 337 336 335 334 333 332
172 161 177 193 189 180 204 223 264 294 239 174 145 130 163 190 216 249 292 329 335 336 332 322 319 325 327 319 318 318 318 321 321 319 321 321 322 339 336 326 332 327 317 318 326 328 331 334 336 342 350 352 348 346 347 348 353 354 351 351 354 350 344 342 344 344 345 344 344 344 344 343 343 343 342 340 340 338 335 334 334 334 334 333 332 330
184 169 178 202 184 165 181 197 213 259 204 165 160 180 212 218 246 275 297 311 310 310 313 314 319 331 335 326 325 328 330 337 344 342 352 22 23 13 359 352 353 341 334 340 344 340 339 340 342 349 357 358 355 354 356 358 357 354 351 352 350 345 342 343 344 344 344 343 343 343 343 341 341 341 340 340 339 336 332 331 332 332 332 332 331 330
202 180 163 208 203 191 209 217 218 239 190 181 195 224 238 245 264 276 286 296 301 305 312 320 326 330 328 323 328 339 353 14 38 38 38 52 42 26 23 14 2 351 348 353 356 356 358 0 358 1 12 13 4 0 2 0 354 350 350 348 345 342 343 343 343 342 342 342 342 342 341 339 339 338 338 338 338 334 331 330 330 329 329 330 330 330
213 207 35 346 233 250 261 248 233 237 230 216 223 240 253 265 275 280 287 295 304 313 321 327 326 328 333 335 341 6 33 46 57 58 63 63 42 29 30 24 13 6 5 10 16 16 15 17 14 15 24 23 11 3 1 357 352 350 348 344 342 341 341 341 340 340 341 341 341 341 339 337 337 336 336 336 336 333 330 328 327 326 326 326 327 326
223 222 225 233 238 268 272 242 208 227 247 247 251 261 270 279 285 288 293 300 310 318 322 330 331 335 349 356 5 37 55 60 67 65 56 47 42 45 47 40 28 22 23 28 31 27 24 25 25 24 25 21 11 2 358 355 352 349 345 341 340 339 338 338 339 339 340 340 340 340 339 337 335 335 334 334 333 332 329 326 324 323 322 323 323 323
198 200 201 225 236 236 250 259 261 267 269 273 282 292 302 311 308 305 310 317 321 322 330 349 353 350 4 21 34 49 51 56 61 58 55 58 61 65 63 54 41 34 34 35 30 26 25 25 23 21 18 13 7 0 356 354 352 348 344 341 340 338 336 337 338 338 338 339 338 338 337 335 334 334 333 331 331 330 328 325 322 320 319 318 318 318
140 166 184 226 247 253 264 273 280 280 279 280 284 298 334 355 343 338 350 349 359 359 352 1 10 12 23 40 51 50 53 61 64 64 68 70 68 67 66 57 44 36 33 31 25 23 22 19 15 13 8 3 360 356 353 351 350 347 344 341 338 336 335 335 335 334 335 335 336 335 334 333 332 332 331 329 327 326 324 322 320 317 315 314 314 315
151 191 182 192 250 263 270 271 263 271 282 352 33 4 11 9 350 352 360 2 18 24 8 7 20 23 30 45 51 54 69 77 77 73 69 62 57 56 51 43 37 32 27 23 20 17 16 13 9 6 2 358 354 351 349 348 346 345 343 339 336 334 332 331 331 330 331 332 332 333 333 332 331 330 330 328 325 323 321 320 319 317 315 313 314 315
209 236 219 209 246 263 309 34 303 281 308 86 69 20 12 353 339 352 14 20 30 39 30 25 32 36 43 55 59 66 83 90 91 86 73 58 47 40 34 29 27 25 20 16 12 10 8 6 3 0 357 353 349 347 346 345 345 344 341 337 334 331 329 327 326 326 328 330 331 332 332 331 330 329 328 326 323 322 321 321 320 319 317 315 315 315